Regional Weather Roundup
Issued by NWS

Home | Current Version | Previous Version | Graphics & Text | Print | Product List | Glossary On
Versions: 1 2 3 4 5 6 7 8 9 10 11 12 13 14 15 16 17 18 19 20 21 22 23 24 25 26 27 28 29 30 31 32 33 34 35 36 37 38 39 40 41 42 43 44 45 46 47 48 49 50
552
ASUS43 KDTX 191601
RWRMI
MICHIGAN HOURLY REGIONAL WEATHER ROUNDUP
NATIONAL WEATHER SERVICE DETROIT/PONTIAC MI
1200 PM EDT TUE SEP 19 2017

NOTE: "FAIR" INDICATES FEW OR NO CLOUDS BELOW 12,000 FEET WITH NO
SIGNIFICANT WEATHER AND/OR OBSTRUCTION TO VISIBILITY.

MIZ047>049-052>055-059>063-066>070-074>076-081>083-191700-
SOUTHEAST LOWER MICHIGAN

CITY           SKY/WX    TMP DP  RH WIND       PRES   REMARKS
ADRIAN         CLOUDY    65  64  97 E7        30.00F
ALMA           CLOUDY    65  56  72 NE7       30.04S
ANN ARBOR      LGT RAIN  66  65  96 NE6       30.01S FOG
BAD AXE        CLOUDY    68  64  87 E7        30.05S
CARO           CLOUDY    67  60  77 E5        30.03S
DETROIT CITY   CLOUDY    69  67  93 E8        30.02S FOG
DETROIT        LGT RAIN  69  67  93 E3        30.03R FOG
FLINT          CLOUDY    65  58  78 NE8       30.03S
GROSSE ILE     HVY RAIN  67  66  97 E3        30.01S
HILLSDALE      CLOUDY    68  63  83 SE6       29.99R
HOWELL         LGT RAIN  63  60  88 CALM      30.02S

CITY           SKY/WX    TMP DP  RH WIND       PRES   REMARKS
JACKSON        CLOUDY    65  63  93 NE13      29.99F FOG
LAMBERTVILLE   LGT RAIN  67  65  92 CALM      29.99F
LANSING        LGT RAIN  62  56  80 N8        30.03R
LAPEER         CLOUDY    64  60  86 CALM      30.04S
MASON          CLOUDY    64  60  87 E7        30.01S FOG
MONROE         RAIN      68  65  93 CALM      30.00F
MT. CLEMENS    CLOUDY    70  69  98 E10       30.01S FOG
PONTIAC        CLOUDY    67  63  87 NE5       30.01S
PORT HOPE        N/A     66  62  87 NE12      30.04S
PORT HURON     CLOUDY    68  66  94 CALM      30.03S FOG
TRI CITIES     CLOUDY    69  61  75 NE10      30.04F
MIDLAND        PTSUNNY   65  60  81 NE8       30.04S
TROY           CLOUDY    68  64  85 NE5       30.04S
SAGINAW HB     CLOUDY    68  55  64 NE9       30.03F
$$
MIZ043>046-050>051-056>058-064>065-071>073-077>080-191700-
SOUTHWEST LOWER MICHIGAN

CITY           SKY/WX    TMP DP  RH WIND       PRES   REMARKS
BATTLE CREEK   CLOUDY    67  64  90 NE6       29.99F
BENTON HARBOR  CLOUDY    71  59  65 SE7       29.98R
BIG RAPIDS     CLOUDY    65  53  63 SE6       30.04S
COLDWATER      CLOUDY    68  67  97 E6        29.99S
FREMONT        FAIR      67  57  69 E9        30.02S
HOLLAND        CLOUDY    69  59  70 E10       30.00S
GRAND RAPIDS   CLOUDY    65  54  67 E10       30.01S
IONIA          CLOUDY    65  55  69 E7        30.01F
KALAMAZOO      CLOUDY    68  62  81 NE5       29.99F
LUDINGTON      MOSUNNY   65  53  65 E9        30.02S
MARSHALL       CLOUDY    65  65  98 NE5       29.99S
MOUNT PLEASANT CLOUDY    68  54  60 E7        30.03F
MUSKEGON       CLOUDY    68  51  54 NE8       30.01R
SOUTH HAVEN    CLOUDY    70  66  86 NE7       29.98S
$$
MIZ016>042-191700-
NORTHERN LOWER MICHIGAN

CITY           SKY/WX    TMP DP  RH WIND       PRES   REMARKS
ALPENA         PTSUNNY   68  57  68 E10       30.08S
BEAVER ISLAND  CLOUDY    67  55  64 E9        30.07S
BELLAIRE       CLOUDY    69  55  60 E7        30.05S
CADILLAC       CLOUDY    68  50  51 E5        30.05S
CHARLEVOIX     CLOUDY    68  56  67 E10       30.08S
FRANKFORT      CLOUDY    69  53  57 E5        30.04S
GAYLORD        CLOUDY    64  54  69 VRB6      30.07F
GRAYLING       CLOUDY    65  54  67 E9        30.07S
HARBOR SPRINGS CLOUDY    66  56  70 E10       30.07S
HOUGHTON LAKE  MOSUNNY   67  54  63 E8        30.06S
MANISTEE       CLOUDY    68  53  58 E8        30.02S
OSCODA         CLOUDY    66  58  75 E12       30.07S
PELLSTON       CLOUDY    68  57  68 SE12      30.08S
ROGERS CITY    MOSUNNY   66  57  73 E9        30.09S
TRAVERSE CITY  PTSUNNY   69  54  58 N3        30.03F
$$
MIZ007>008-015-191700-
EASTERN UPPER MICHIGAN

CITY           SKY/WX    TMP DP  RH WIND       PRES   REMARKS
KINROSS        MOSUNNY   66  56  70 E9        30.09F
MACKINAC ISLAN CLOUDY    65  58  76 E7G18     30.08S
NEWBERRY       SUNNY     67  56  67 SE10G21   30.07F
S. S. MARIE    SUNNY     67  53  61 VRB6      30.09F
MUNISING         N/A     69  52  54 SE8       30.04F
$$
MIZ004>006-011>014-085-191700-
CENTRAL UPPER MICHIGAN

CITY           SKY/WX    TMP DP  RH WIND       PRES   REMARKS
MANISTIQUE     SUNNY     65  57  74 E13G18    30.07R
ESCANABA       CLOUDY    66  57  72 E12       30.05S
MENOMINEE      CLOUDY    66  60  81 SE8       30.04S
SAWYER-GWINN   SUNNY     66  52  59 SE10      30.06S
$$
MIZ001>003-009>011-084-191700-
WESTERN UPPER MICHIGAN

CITY           SKY/WX    TMP DP  RH WIND       PRES   REMARKS
IRON MOUNTAIN  MOSUNNY   66  56  70 SE7       30.03F
HOUGHTON       SUNNY     64  52  64 E10       30.03S
COPPER HARBOR    N/A     63  51  65 S10G20    30.04S
IRONWOOD       MOSUNNY   67  55  65 SE7       29.99F
$$

ABBREVIATIONS USED IN REMARKS
   TC - TEMPERATURE IN CELSIUS
  WCI - WIND CHILL INDEX
   HX - HEAT INDEX
  VSB - VISIBILITY





USA.gov is the U.S. government's official web portal to all federal, state and local government web resources and services.